This is the latest recevied weather packets stored in our database for station/object N8ESC. If no packets are shown the sender has not sent any weather packets the latest 10 day(s).
| Time | Temp. | Humidity | Pressure | Rain* | Wind** | Luminosity | Snow |
|---|---|---|---|---|---|---|---|
| 1778026163 | 8.33° C | 43% | 1007.3 hPa | 0 mm | - | 25 W/m² | - |
| 1778025861 | 8.33° C | 43% | 1007.2 hPa | 0 mm | - | 33 W/m² | - |
| 1778025558 | 8.33° C | 43% | 1007.1 hPa | 0 mm | - | 39 W/m² | - |
| 1778025256 | 8.33° C | 43% | 1007 hPa | 0 mm | - | 42 W/m² | - |
| 1778024952 | 8.33° C | 42% | 1006.8 hPa | 0 mm | - | 47 W/m² | - |
| 1778024650 | 8.89° C | 41% | 1006.8 hPa | 0 mm | - | 55 W/m² | - |
| 1778024346 | 8.89° C | 40% | 1006.8 hPa | 0 mm | - | 58 W/m² | - |
| 1778024044 | 8.89° C | 40% | 1006.5 hPa | 0 mm | - | 67 W/m² | - |
| 1778023741 | 9.44° C | 40% | 1006.4 hPa | 0 mm | - | 82 W/m² | - |
| 1778023439 | 9.44° C | 40% | 1006.4 hPa | 0 mm | - | 84 W/m² | - |
| 1778023136 | 8.89° C | 40% | 1006.4 hPa | 0 mm | - | 88 W/m² | - |
| 1778022833 | 8.89° C | 40% | 1006.4 hPa | 0 mm | - | 82 W/m² | - |
| 1778022531 | 8.89° C | 41% | 1006.5 hPa | 0 mm | - | 81 W/m² | - |
| 1778022228 | 8.89° C | 41% | 1006.4 hPa | 0 mm | - | 97 W/m² | - |
| 1778021925 | 9.44° C | 41% | 1006.4 hPa | 0 mm | - | 89 W/m² | - |
| 1778021622 | 9.44° C | 41% | 1006.4 hPa | 0 mm | - | 86 W/m² | - |
| 1778021317 | 9.44° C | 41% | 1006.4 hPa | 0 mm | - | 96 W/m² | - |
| 1778021016 | 10° C | 40% | 1006.4 hPa | 0 mm | - | 90 W/m² | - |
| 1778020712 | 10° C | 40% | 1006.3 hPa | 0 mm | - | 99 W/m² | - |
| 1778020409 | 10° C | 39% | 1006.2 hPa | 0 mm | - | 124 W/m² | - |
| 1778020105 | 10° C | 39% | 1006.1 hPa | 0 mm | - | 153 W/m² | - |
| 1778019801 | 10° C | 40% | 1006.2 hPa | 0 mm | - | 148 W/m² | - |
| 1778019498 | 10° C | 41% | 1006 hPa | 0 mm | - | 144 W/m² | - |
| 1778019195 | 10° C | 41% | 1006.1 hPa | 0 mm | - | 151 W/m² | - |
| 1778018892 | 10° C | 40% | 1006 hPa | 0 mm | - | 155 W/m² | - |
* Rain latest hour (hover to see other rain measurements)
** Current wind speed in m/s (hover to see current wind gust speed)